Regional Weather Roundup
Issued by NWS

Home | Current Version | Previous Version | Text Only | Print | Product List | Glossary Off
Versions: 1 2 3 4 5 6 7 8 9 10 11 12 13 14 15 16 17 18 19 20 21 22 23 24 25 26 27 28 29 30 31 32 33 34 35 36 37 38 39 40 41 42 43 44 45 46 47 48 49 50

000
ASUS43 KMKX 030121
RWRWI

WISCONSIN REGIONAL WEATHER ROUNDUP
NATIONAL WEATHER SERVICE MILWAUKEE/SULLIVAN WI
800 PM CDT TUE SEP 02 2014

NOTE: "FAIR" INDICATES FEW OR NO CLOUDS BELOW 12,000 FEET WITH NO
SIGNIFICANT WEATHER AND/OR OBSTRUCTIONS TO VISIBILITY.

WIZ001-002-006>008-014>016-023>028-030200-
NORTHWEST WISCONSIN

CITY           SKY/WX    TMP DP  RH WIND       PRES   REMARKS
SUPERIOR ARPT  CLEAR     60  55  83 SE5       29.81S
ASHLAND        CLOUDY    59  55  87 NE6       29.87S
HAYWARD        PTCLDY    64  56  75 CALM      29.86S
SIREN          CLEAR     66  52  61 SW6       29.85S
RICE LAKE      CLEAR     62  56  79 S3        29.89R
LADYSMITH      CLEAR     64  56  76 S3        29.90R
EAU CLAIRE     CLEAR     67  55  65 CALM      29.87S
MENOMONIE      CLEAR     68  55  62 S5        29.88R
NEW RICHMOND   CLEAR     64  55  71 CALM      29.88R
OSCEOLA        CLEAR     64  57  79 CALM      29.89R
$$

WIZ003>005-009-010-017-018-030200-
NORTH CENTRAL WISCONSIN

CITY           SKY/WX    TMP DP  RH WIND       PRES   REMARKS
WOODRUFF       CLEAR     62  54  74 CALM      29.89R
RHINELANDER    CLEAR     59  53  80 W5        29.90R
EAGLE RIVER    CLEAR     61  49  65 CALM      29.88R
LAND O LAKES   CLEAR     56  53  88 CALM      29.89R
PHILLIPS       CLEAR     64  54  71 SW5       29.88R
TOMAHAWK       CLEAR     58  54  86 CALM      29.90R
MEDFORD        CLEAR     60  56  85 SW3       29.90R FOG
MERRILL        CLEAR     61  56  83 CALM      29.89R
$$

WIZ029-030-035-036-043>047-030200-
CENTRAL WISCONSIN

CITY           SKY/WX    TMP DP  RH WIND       PRES   REMARKS
WAUSAU         CLEAR     68  55  63 W3        29.88R
MOSINEE        CLEAR     66  57  72 W5        29.90S
MARSHFIELD     CLEAR     66  56  70 W6        29.89S
STEVENS POINT  CLEAR     64  59  85 CALM      29.90R
WAUPACA        CLEAR     69  59  69 W3        29.89R
WAUTOMA        CLEAR     65  62  90 CALM      29.90R
WISC RAPIDS    CLEAR     66  57  72 W5        29.90S
CAMP DOUGLAS   PTCLDY    64  64 100 CALM      29.90R
$$

WIZ011>013-019>022-031-037>040-048>050-030200-
NORTHEAST WISCONSIN

CITY           SKY/WX    TMP DP  RH WIND       PRES   REMARKS
ANTIGO         CLEAR     60  54  79 W5        29.90R
STURGEON BAY   CLEAR     64  59  82 CALM      29.87S
GREEN BAY      CLEAR     65  60  84 SW3       29.87R
MANITOWOC      CLEAR     67  62  84 CALM      29.88R
APPLETON       PTCLDY    66  55  68 W7        29.89R
CLINTONVILLE   CLEAR     68  57  68 CALM      29.87S
OSHKOSH        CLEAR     69  58  67 W3        29.88R
$$

WIZ032>034-041-042-053>061-030200-
SOUTHWEST WISCONSIN

CITY           SKY/WX    TMP DP  RH WIND       PRES   REMARKS
LA CROSSE      CLEAR     73  60  63 SW3       29.88S
SPARTA         CLEAR     66  60  82 CALM      29.90S
VIROQUA        FAIR      65  60  84 SW3       29.92S
BOSCOBEL       CLEAR     68  61  78 CALM      29.91R
PRAIRIE DU CHI CLEAR     68  60  75 CALM      29.90R
PLATTEVILLE    FAIR      69  58  66 CALM      29.93R
$$

WIZ056-057-062-063-064-067-068-030200-
SOUTH CENTRAL WISCONSIN

CITY           SKY/WX    TMP DP  RH WIND       PRES   REMARKS
BARABOO/DELLS  CLEAR     67  56  68 SW3       29.91R
LONE ROCK      CLEAR     71  60  68 CALM      29.90S
WATERTOWN      CLEAR     65  60  83 CALM      29.90R
MADISON        CLEAR     67  58  72 CALM      29.90R
MIDDLETON      FAIR      64  58  81 W3        29.91S
MONROE         CLEAR     70  57  64 W5        29.93R
JANESVILLE     CLEAR     72  59  64 CALM      29.90R
$$

WIZ051-052-058>065-066-070>072-030200-
SOUTHEAST WISCONSIN

CITY           SKY/WX    TMP DP  RH WIND       PRES   REMARKS
MILWAUKEE      PTCLDY    73  57  57 NW3       29.90R
WAUKESHA       CLEAR     66  57  72 W3        29.92R
MILWAUKEE/TIMM CLEAR     72  55  56 CALM      29.90R
RACINE         CLEAR     70  59  68 CALM      29.92R
BURLINGTON     CLEAR     62  59  88 CALM      29.92R
KENOSHA        CLEAR     65  60  84 W3        29.91R
FOND DU LAC    CLEAR     66  59  78 W5        29.89R
SHEBOYGAN      CLEAR     63  60  90 CALM      29.89R
WEST BEND      CLEAR     63  57  82 CALM      29.90R
JUNEAU         CLEAR     67  58  73 CALM      29.91R
$$

LSZ147-162-030200-
LAKE SUPERIOR

STATION/POSITION TIME  TEMP    WIND        PRES    WAVE
                       AIR SEA DIR/SP/G            HT/PER
                 (UTC) (F)     (DEG/KT/KT) (MB)    (FT/S)
W MID LAKE BUOY  0050   62 57  230/ 19/ 23 1008.9R   3/ 4
DEVILS ISLAND    0100   62     220/  8/ 10 1009.3F
PORT WING        0000           10/ 15/ 23 1010.8S
SAXON HARBOR     0013   69     340/ 14/ 25 1011.5R
$$

LMZ867-665-643>646-030200-
LAKE MICHIGAN

STATION/POSITION TIME  TEMP    WIND        PRES    WAVE
                       AIR SEA DIR/SP/G            HT/PER
                 (UTC) (F)     (DEG/KT/KT) (MB)    (FT/S)
N MID LAKE BUOY  0050   66 65  220/ 12/ 14 1010.6R   2/ 3
NORTHPORT PIER   0000   71     200/  2/  4 1010.2S
SISTER BAY       2341   73     220/  9/ 10   N/A
KEWAUNEE LAKESHO 0100   67     300/  2/  2 1010.6R
SHEBOYGAN LAKESH 0100   67 50  200/  6/  6 1012.2R
ATWATER BUOY     0100   69     230/  2/  2 1013.7R
MILWAUKEE LAKESH 0100   69      40/  2/  2   N/A
S MID LAKE BUOY  0050   72 72  140/  6/  6 1012.3R   0
KENOSHA   LAKESH 0100   74     300/  4/  4 1012.2R
$$

TC  - TEMPERATURE IN CELSIUS
VSB - VISIBILITY IN STATUTE MILES
WCI - WIND CHILL INDEX
HX  - HEAT INDEX




USA.gov is the U.S. government's official web portal to all federal, state and local government web resources and services.